Temp
71 71 71 72 72 72 74 74 74 74 74 74 74 74 74 75 74 74 74 73 72 70 69 70 70 70 74 70 71 72 74 74 75 75 74 74 74 74 73 73 72 72 71 71 71 71 71 71 71 71 72 71 71 66 65 67 69 68 68 67 68 68
70 70 71 71 72 72 73 73 72 72 72 73 74 74 73 72 74 71 73 71 69 70 67 66 68 73 69 71 71 72 73 74 74 74 74 74 74 73 73 73 72 71 71 71 71 64 65 68 69 70 71 72 66 64 65 68 68 68 68 67 67 70
70 70 70 71 71 72 71 70 70 71 72 73 74 73 70 72 68 69 69 69 68 67 67 67 68 70 69 72 71 72 73 74 74 74 73 73 73 73 73 72 71 71 70 71 67 63 63 63 63 69 69 65 63 65 66 68 68 68 68 67 66 72
71 70 70 70 70 70 70 70 70 70 70 70 70 70 68 68 68 68 68 67 67 67 66 65 74 75 74 69 68 71 73 73 74 74 73 72 72 72 73 72 71 71 70 69 64 63 64 62 63 63 64 63 63 65 66 67 68 67 67 70 68 73
72 71 70 70 70 69 69 69 69 69 69 68 67 66 66 66 66 67 67 67 67 67 66 65 64 66 66 66 65 66 68 68 68 68 71 67 67 69 69 68 66 67 64 64 64 63 63 64 65 65 65 64 64 65 66 67 68 67 67 68 68 72
72 72 70 69 69 70 70 68 68 68 67 67 66 65 65 65 65 65 66 67 67 66 66 65 64 64 65 64 65 66 66 67 67 67 68 67 66 67 66 67 67 66 65 64 64 64 64 65 65 65 64 64 64 65 65 67 67 67 67 66 69 73
72 71 71 71 70 70 68 68 68 68 67 66 65 65 64 64 64 64 65 67 66 66 66 65 65 64 64 65 65 66 66 66 67 67 68 66 67 67 66 66 66 66 65 64 64 65 64 65 64 66 65 66 65 65 66 67 67 67 66 67 70 72
72 71 70 72 70 69 68 68 69 71 68 68 66 64 64 63 64 64 65 66 67 66 65 65 65 65 64 65 65 66 66 66 66 67 68 67 67 66 66 65 65 65 66 66 66 65 65 67 66 65 66 65 65 65 66 66 67 67 66 66 68 72
73 72 71 71 70 69 68 68 69 67 66 70 65 64 64 64 64 65 65 66 68 65 65 65 64 65 63 65 65 65 65 65 66 66 67 65 66 66 66 66 65 65 65 66 65 65 66 67 66 66 66 66 65 66 66 66 66 67 66 66 67 70
73 72 71 71 69 68 68 68 67 67 66 69 64 64 65 64 63 64 64 65 67 66 65 65 65 64 64 64 65 65 65 65 65 66 66 65 65 65 65 65 65 66 67 66 66 66 66 66 68 67 67 68 65 67 66 67 66 67 67 66 66 68
73 73 72 71 69 69 68 67 67 67 67 65 65 66 65 64 64 63 64 65 66 67 66 65 65 65 64 64 64 64 64 65 64 64 64 65 65 65 64 65 66 65 64 64 66 66 66 67 68 69 68 68 67 67 67 67 67 67 67 66 66 67
73 73 71 71 70 68 68 68 68 66 66 66 66 64 64 64 66 64 65 64 65 67 66 65 65 65 64 64 63 64 64 64 64 64 64 65 64 64 64 65 66 66 65 65 65 66 66 66 67 71 70 69 67 66 67 67 68 68 68 67 66 67
73 72 71 70 69 68 68 69 67 66 66 67 66 65 64 64 64 65 66 66 66 66 66 64 64 65 65 62 63 63 62 63 63 64 63 64 64 64 64 64 63 65 64 64 64 65 67 66 66 66 66 69 67 68 68 68 67 67 67 67 67 67
71 71 69 69 68 68 67 66 66 65 67 65 64 64 65 63 64 64 65 65 66 66 65 64 64 64 64 63 62 62 62 62 63 63 63 63 63 64 63 63 64 64 66 64 64 64 63 64 64 64 65 68 66 65 66 67 67 67 67 66 66 66
70 69 70 68 68 68 67 67 65 64 64 62 63 62 62 62 63 64 65 64 65 66 65 64 65 65 65 64 63 62 63 63 63 62 62 62 62 63 63 63 64 64 63 63 64 63 63 62 63 64 63 63 65 66 65 66 65 68 68 67 66 65
68 68 68 68 67 67 67 66 65 66 63 62 63 63 62 63 64 64 65 65 65 66 65 64 64 64 63 63 63 62 63 64 64 63 62 62 63 63 63 64 64 63 61 63 63 62 63 63 63 63 63 63 63 64 64 64 65 66 68 67 66 66
68 67 67 67 67 66 66 65 64 64 63 63 62 62 62 63 64 65 64 64 65 66 64 64 64 64 63 63 62 62 63 63 63 63 62 61 62 62 64 64 62 64 63 61 63 63 62 63 63 63 63 63 63 63 64 64 64 65 68 66 65 66
68 68 67 67 66 65 65 64 63 63 64 64 63 63 64 65 64 64 64 64 64 65 64 64 64 63 63 63 63 63 62 62 63 62 62 61 61 62 63 63 62 63 63 63 61 61 60 61 64 63 62 63 62 62 63 64 64 65 65 66 66 66
68 66 66 65 65 64 63 62 61 63 63 62 63 62 63 62 62 64 63 64 64 64 64 63 63 63 61 63 62 62 61 61 62 61 62 62 62 62 62 62 62 61 61 61 61 61 61 61 62 62 62 62 62 63 62 62 64 64 64 65 67 69
66 66 65 64 64 63 63 63 62 62 62 62 62 63 62 62 62 64 65 65 64 62 64 63 63 62 62 61 60 60 60 62 62 61 62 62 62 62 61 60 59 61 61 62 62 61 61 61 60 61 61 61 62 63 64 63 63 64 64 64 64 64
64 65 65 64 62 62 62 61 60 61 60 60 62 61 63 62 62 62 63 64 64 63 63 63 64 62 61 64 60 60 61 62 63 62 62 62 63 62 60 60 61 60 60 59 60 62 61 60 60 59 58 59 60 62 63 62 62 63 64 64 65 65
64 64 64 63 63 62 60 62 62 61 60 60 61 61 60 61 61 63 61 61 62 61 61 62 63 62 62 61 60 60 60 62 62 61 61 61 61 62 62 61 61 60 60 59 59 62 61 59 57 56 58 56 58 60 61 61 60 63 63 64 63 64
64 64 63 64 63 63 60 61 62 59 63 59 60 60 60 61 63 63 61 61 60 60 60 60 61 61 62 62 60 59 60 60 61 63 62 61 61 60 60 61 60 59 58 58 59 61 59 59 56 57 56 57 54 56 57 58 60 62 63 64 63 64
64 63 63 63 64 61 62 61 62 62 61 61 61 61 60 59 61 61 61 61 61 60 60 60 62 62 61 59 59 59 59 60 61 61 60 59 58 59 59 59 60 59 59 57 58 58 60 59 58 57 56 55 55 54 52 56 55 58 60 63 64 65
64 62 61 62 62 63 64 62 62 61 62 62 61 59 59 58 58 60 60 60 60 60 61 62 61 61 62 59 58 59 59 60 60 60 60 59 58 58 58 57 59 58 58 58 58 59 61 60 59 60 56 54 53 52 52 53 54 56 59 60 62 63
62 61 62 62 64 65 64 63 62 61 59 57 56 56 56 57 57 58 59 60 60 60 61 60 60 61 61 61 59 59 58 59 59 60 61 60 59 59 59 58 57 57 58 58 58 59 60 61 59 60 60 57 56 53 53 56 54 53 58 59 59 61
62 62 62 62 64 65 63 63 62 61 60 59 58 56 56 56 57 58 58 59 59 58 59 60 59 59 60 61 60 60 60 60 60 60 60 59 58 58 60 61 59 59 58 58 59 56 59 59 59 59 60 59 60 61 57 55 53 54 53 56 57 59
62 63 62 63 63 65 63 61 60 60 60 58 59 59 58 58 58 58 58 58 57 58 58 59 59 59 60 61 60 59 59 60 61 61 61 59 58 58 60 60 60 58 58 59 59 59 58 59 57 56 59 59 59 60 59 59 56 54 51 52 56 56
62 63 61 63 64 64 64 62 61 61 59 58 59 60 59 60 58 58 57 57 57 57 57 57 58 58 58 60 61 59 59 59 59 59 61 60 59 59 58 57 57 57 56 57 59 58 58 56 57 57 58 57 58 58 58 57 58 56 54 51 53 54
62 63 62 62 63 63 63 62 61 60 60 58 60 59 58 58 57 57 57 55 56 56 56 56 56 56 57 58 58 59 58 58 57 59 59 58 58 58 57 57 56 57 57 56 56 57 56 55 56 56 57 57 56 58 57 56 55 55 56 55 54 54
63 63 62 62 63 63 63 63 63 61 61 60 59 59 58 57 56 56 56 55 56 55 55 56 56 55 55 56 56 58 57 56 57 58 58 57 57 57 56 56 57 57 57 56 55 55 56 55 56 57 57 56 55 56 55 54 54 55 54 52 51 51
63 63 62 62 63 63 63 62 63 63 62 61 60 60 59 58 57 57 56 55 55 55 54 55 55 55 55 55 57 55 56 56 56 55 56 56 56 57 56 56 55 56 55 55 55 56 54 54 54 54 54 54 54 56 55 55 55 54 54 53 53 51
62 62 62 61 62 63 62 62 63 63 62 61 60 60 59 58 58 57 56 56 55 54 54 56 55 55 56 55 56 57 57 57 56 56 55 56 55 55 56 55 55 54 54 54 53 54 53 51 53 54 52 53 54 55 54 54 54 54 52 52 51 49
60 61 61 61 61 61 60 61 62 63 62 61 60 59 58 59 58 58 58 57 57 56 55 56 55 55 56 55 55 56 56 55 54 55 56 55 55 55 55 56 55 55 54 52 53 53 52 51 51 51 51 52 53 53 52 53 52 53 52 51 48 49
58 60 62 61 60 60 58 59 61 62 62 61 60 59 58 59 58 58 58 58 57 56 57 56 56 58 55 55 54 54 54 55 55 56 56 56 57 55 55 56 55 53 53 52 53 53 52 54 55 53 52 52 53 52 52 52 52 53 52 51 51 50
59 59 59 59 59 59 59 59 60 60 61 61 60 60 59 59 58 59 59 59 57 57 58 57 57 57 55 57 55 55 55 54 54 55 55 56 56 56 55 54 53 53 53 55 54 52 51 52 52 51 51 51 53 51 52 53 53 52 52 52 52 49
59 59 59 60 58 59 59 59 59 60 60 61 60 60 61 60 59 59 59 58 58 58 58 58 58 57 56 55 56 56 55 54 54 54 53 54 54 54 54 56 55 52 53 52 54 51 51 53 50 50 50 50 51 51 50 51 51 53 52 51 52 50
MSLP
1014.62 1014.66 1014.70 1014.82 1014.94 1015.06 1015.10 1015.10 1015.14 1015.22 1015.30 1015.38 1015.42 1015.42 1015.50 1015.54 1015.62 1015.70 1015.74 1015.82 1015.98 1016.14 1016.26 1016.38 1016.54 1016.62 1016.70 1016.78 1016.82 1016.86 1016.90 1017.02 1017.14 1017.30 1017.42 1017.50 1017.58 1017.66 1017.74 1017.78 1017.90 1017.94 1017.90 1017.90 1017.90 1017.82 1017.82 1017.90 1017.98 1018.02 1018.02 1018.14 1018.34 1018.42 1018.46 1018.50 1018.62 1018.78 1018.94 1019.02 1019.06 1018.98
1014.70 1014.78 1014.82 1014.94 1015.06 1015.10 1015.14 1015.18 1015.22 1015.30 1015.42 1015.42 1015.46 1015.50 1015.58 1015.62 1015.66 1015.78 1015.86 1016.02 1016.14 1016.26 1016.46 1016.62 1016.66 1016.70 1016.82 1016.86 1016.90 1016.94 1017.02 1017.10 1017.22 1017.34 1017.50 1017.58 1017.66 1017.74 1017.82 1017.86 1017.94 1017.98 1017.98 1017.98 1017.94 1017.90 1017.90 1017.94 1018.02 1018.02 1018.06 1018.14 1018.42 1018.46 1018.42 1018.46 1018.70 1018.86 1019.02 1019.06 1019.10 1019.02
1014.82 1014.94 1015.06 1015.14 1015.18 1015.18 1015.22 1015.30 1015.38 1015.46 1015.46 1015.50 1015.54 1015.62 1015.66 1015.66 1015.82 1015.98 1016.10 1016.18 1016.26 1016.34 1016.50 1016.70 1016.78 1016.82 1016.90 1016.94 1017.02 1017.06 1017.14 1017.18 1017.30 1017.38 1017.54 1017.66 1017.74 1017.82 1017.90 1017.94 1017.98 1018.02 1018.06 1018.02 1018.02 1018.02 1017.94 1017.98 1018.02 1018.02 1018.06 1018.22 1018.58 1018.46 1018.42 1018.50 1018.66 1018.86 1018.98 1019.02 1019.10 1019.02
1014.90 1015.06 1015.14 1015.26 1015.26 1015.30 1015.34 1015.38 1015.46 1015.50 1015.50 1015.50 1015.58 1015.74 1015.78 1015.86 1016.02 1016.10 1016.14 1016.26 1016.42 1016.50 1016.62 1016.74 1016.70 1016.74 1016.82 1016.98 1017.10 1017.18 1017.26 1017.34 1017.30 1017.42 1017.62 1017.78 1017.86 1017.86 1017.90 1017.94 1018.02 1018.06 1018.06 1018.10 1018.18 1018.14 1018.14 1018.06 1018.06 1018.06 1018.10 1018.18 1018.62 1018.42 1018.42 1018.50 1018.66 1018.82 1018.98 1019.02 1019.14 1019.10
1014.78 1014.98 1015.14 1015.26 1015.34 1015.46 1015.46 1015.54 1015.62 1015.62 1015.58 1015.62 1015.82 1015.94 1015.94 1015.98 1016.10 1016.18 1016.26 1016.38 1016.54 1016.62 1016.70 1016.74 1016.82 1016.86 1017.02 1017.14 1017.22 1017.34 1017.42 1017.46 1017.46 1017.58 1017.66 1017.86 1017.94 1017.94 1017.94 1018.06 1018.06 1018.10 1018.14 1018.18 1018.26 1018.30 1018.26 1018.22 1018.10 1018.06 1018.10 1018.14 1018.58 1018.42 1018.38 1018.50 1018.66 1018.82 1018.94 1018.98 1019.06 1019.06
1014.74 1014.90 1015.10 1015.26 1015.42 1015.46 1015.54 1015.74 1015.82 1015.74 1015.66 1015.78 1015.94 1016.10 1016.06 1016.14 1016.22 1016.34 1016.42 1016.50 1016.66 1016.78 1016.82 1016.82 1016.90 1016.98 1017.10 1017.22 1017.38 1017.50 1017.50 1017.50 1017.54 1017.62 1017.62 1017.86 1017.90 1017.94 1018.06 1018.06 1018.10 1018.14 1018.18 1018.22 1018.34 1018.34 1018.30 1018.26 1018.26 1018.18 1018.10 1018.10 1018.62 1018.46 1018.42 1018.54 1018.66 1018.82 1018.94 1018.98 1018.98 1019.02
1014.74 1014.94 1015.14 1015.26 1015.42 1015.50 1015.70 1015.66 1015.70 1015.70 1015.70 1015.86 1015.98 1016.18 1016.18 1016.22 1016.30 1016.42 1016.54 1016.58 1016.82 1016.94 1016.94 1016.98 1017.02 1017.06 1017.14 1017.22 1017.50 1017.50 1017.50 1017.46 1017.54 1017.58 1017.54 1017.66 1017.78 1017.90 1018.02 1018.14 1018.18 1018.22 1018.18 1018.30 1018.38 1018.34 1018.34 1018.30 1018.26 1018.30 1018.18 1018.14 1018.54 1018.50 1018.54 1018.62 1018.66 1018.78 1018.90 1018.94 1018.94 1018.98
1014.82 1015.02 1015.22 1015.26 1015.42 1015.58 1015.66 1015.74 1015.74 1015.62 1015.66 1015.70 1015.94 1016.18 1016.30 1016.34 1016.34 1016.42 1016.54 1016.62 1016.70 1016.90 1017.06 1017.14 1017.10 1017.10 1017.14 1017.22 1017.46 1017.46 1017.46 1017.62 1017.54 1017.42 1017.30 1017.38 1017.70 1017.90 1018.06 1018.10 1018.18 1018.22 1018.26 1018.30 1018.38 1018.38 1018.34 1018.30 1018.18 1018.22 1018.26 1018.22 1018.30 1018.42 1018.50 1018.58 1018.66 1018.74 1018.86 1018.98 1018.98 1018.98
1014.82 1015.02 1015.14 1015.18 1015.42 1015.50 1015.62 1015.70 1015.66 1015.70 1015.74 1015.70 1015.94 1016.18 1016.34 1016.42 1016.42 1016.42 1016.50 1016.58 1016.66 1016.94 1017.02 1017.10 1017.14 1017.10 1017.10 1017.30 1017.42 1017.46 1017.50 1017.54 1017.38 1017.18 1017.22 1017.46 1017.58 1017.86 1017.98 1018.02 1018.10 1018.18 1018.22 1018.30 1018.34 1018.34 1018.30 1018.26 1018.18 1018.14 1018.18 1018.18 1018.22 1018.34 1018.42 1018.54 1018.62 1018.70 1018.78 1018.90 1018.98 1018.94
1014.70 1014.94 1015.06 1015.14 1015.34 1015.50 1015.58 1015.66 1015.70 1015.70 1015.74 1015.74 1015.94 1016.10 1016.30 1016.46 1016.46 1016.46 1016.50 1016.54 1016.58 1016.74 1016.90 1017.02 1017.06 1017.06 1017.10 1017.34 1017.38 1017.42 1017.42 1017.30 1017.06 1016.98 1017.26 1017.62 1017.58 1017.66 1017.78 1017.94 1018.06 1018.14 1018.22 1018.30 1018.30 1018.26 1018.26 1018.26 1018.18 1018.10 1018.02 1017.94 1018.14 1018.14 1018.30 1018.42 1018.54 1018.62 1018.70 1018.86 1018.94 1018.90
1014.50 1014.70 1014.90 1015.10 1015.26 1015.42 1015.50 1015.58 1015.62 1015.70 1015.74 1015.82 1015.86 1015.98 1016.22 1016.38 1016.46 1016.46 1016.46 1016.50 1016.54 1016.62 1016.78 1016.86 1016.98 1017.06 1017.14 1017.26 1017.34 1017.26 1017.14 1016.86 1016.98 1017.38 1017.58 1017.66 1017.50 1017.50 1017.58 1017.78 1017.98 1018.10 1018.22 1018.30 1018.22 1018.10 1018.10 1018.18 1018.02 1017.98 1017.74 1017.70 1017.94 1018.06 1018.26 1018.30 1018.34 1018.42 1018.62 1018.78 1018.86 1018.94
1014.38 1014.54 1014.74 1014.98 1015.18 1015.42 1015.46 1015.46 1015.58 1015.66 1015.74 1015.74 1015.74 1015.94 1016.10 1016.34 1016.46 1016.46 1016.38 1016.46 1016.46 1016.54 1016.66 1016.86 1016.94 1017.06 1017.14 1017.34 1017.34 1017.06 1016.82 1017.06 1017.46 1017.54 1017.58 1017.54 1017.58 1017.62 1017.74 1017.86 1017.94 1017.98 1018.10 1018.10 1018.06 1017.98 1017.94 1018.02 1017.98 1017.70 1017.58 1017.70 1017.86 1018.02 1018.18 1018.26 1018.30 1018.30 1018.46 1018.66 1018.82 1018.94
1014.26 1014.46 1014.66 1015.02 1015.14 1015.26 1015.34 1015.42 1015.54 1015.58 1015.62 1015.66 1015.78 1015.94 1016.06 1016.22 1016.34 1016.34 1016.34 1016.38 1016.46 1016.50 1016.66 1016.86 1017.02 1017.06 1017.18 1017.26 1017.18 1017.06 1017.30 1017.54 1017.58 1017.58 1017.62 1017.58 1017.62 1017.74 1017.86 1018.02 1018.10 1018.02 1018.10 1018.18 1018.18 1017.98 1017.86 1017.82 1017.78 1017.82 1017.82 1017.94 1017.94 1018.06 1018.18 1018.34 1018.54 1018.62 1018.54 1018.54 1018.66 1018.86
1014.26 1014.50 1014.78 1014.94 1015.14 1015.30 1015.38 1015.42 1015.42 1015.50 1015.54 1015.66 1015.82 1015.98 1016.06 1016.18 1016.30 1016.38 1016.38 1016.42 1016.46 1016.50 1016.70 1016.82 1016.98 1017.14 1017.14 1017.14 1017.18 1017.42 1017.66 1017.74 1017.58 1017.50 1017.54 1017.58 1017.70 1017.86 1018.06 1018.14 1018.18 1018.22 1018.26 1018.26 1018.26 1018.14 1018.18 1018.06 1017.90 1017.86 1017.98 1017.94 1018.06 1018.22 1018.18 1018.22 1018.30 1018.46 1018.62 1018.82 1018.74 1018.78
1014.22 1014.50 1014.66 1014.98 1015.14 1015.26 1015.26 1015.34 1015.46 1015.58 1015.66 1015.82 1016.02 1016.18 1016.26 1016.26 1016.34 1016.42 1016.46 1016.54 1016.54 1016.58 1016.74 1016.86 1016.94 1017.02 1017.02 1016.98 1017.18 1017.54 1017.70 1017.70 1017.62 1017.58 1017.54 1017.54 1017.62 1017.70 1018.02 1018.18 1018.14 1018.26 1018.26 1018.26 1018.34 1018.26 1018.22 1018.42 1018.26 1018.34 1018.34 1018.22 1018.30 1018.38 1018.30 1018.26 1018.18 1018.22 1018.42 1018.62 1018.82 1018.98
1014.22 1014.46 1014.70 1014.90 1015.10 1015.14 1015.18 1015.26 1015.38 1015.54 1015.78 1015.94 1016.14 1016.30 1016.38 1016.42 1016.42 1016.42 1016.50 1016.62 1016.58 1016.62 1016.78 1016.86 1016.90 1016.82 1016.82 1016.90 1017.18 1017.50 1017.58 1017.50 1017.46 1017.46 1017.46 1017.58 1017.66 1017.86 1018.02 1018.10 1018.06 1018.22 1018.34 1018.46 1018.38 1018.58 1018.54 1018.50 1018.38 1018.50 1018.54 1018.38 1018.38 1018.46 1018.46 1018.30 1018.22 1018.18 1018.18 1018.38 1018.70 1018.90
1014.26 1014.50 1014.78 1014.94 1015.06 1015.14 1015.22 1015.34 1015.42 1015.66 1015.82 1016.02 1016.18 1016.38 1016.46 1016.54 1016.58 1016.58 1016.58 1016.62 1016.62 1016.66 1016.70 1016.82 1016.86 1016.78 1016.78 1016.82 1017.10 1017.30 1017.38 1017.38 1017.38 1017.42 1017.54 1017.70 1017.82 1017.98 1018.10 1018.10 1018.18 1018.26 1018.06 1018.26 1018.38 1018.70 1018.70 1018.58 1018.62 1018.66 1018.70 1018.62 1018.58 1018.58 1018.62 1018.50 1018.34 1018.18 1018.14 1018.38 1018.70 1018.86
1014.18 1014.38 1014.58 1014.82 1015.02 1015.22 1015.34 1015.42 1015.66 1015.82 1015.90 1016.06 1016.22 1016.38 1016.54 1016.62 1016.74 1016.70 1016.58 1016.58 1016.62 1016.74 1016.70 1016.66 1016.74 1016.74 1016.78 1016.90 1017.06 1017.22 1017.30 1017.30 1017.30 1017.38 1017.54 1017.78 1018.02 1018.14 1018.10 1018.14 1018.22 1018.18 1018.06 1018.02 1018.42 1018.54 1018.78 1018.78 1018.78 1018.78 1018.74 1018.74 1018.70 1018.66 1018.74 1018.78 1018.58 1018.42 1018.38 1018.46 1018.58 1018.74
1014.14 1014.42 1014.66 1014.86 1015.10 1015.30 1015.46 1015.66 1015.90 1016.14 1016.34 1016.46 1016.46 1016.50 1016.50 1016.66 1016.86 1016.78 1016.66 1016.66 1016.78 1016.98 1016.90 1016.74 1016.70 1016.78 1016.90 1017.02 1017.18 1017.26 1017.30 1017.34 1017.34 1017.42 1017.62 1017.90 1018.02 1018.10 1018.06 1017.98 1018.10 1018.18 1018.34 1018.34 1018.34 1018.50 1018.62 1018.70 1018.86 1018.86 1018.78 1018.74 1018.74 1018.70 1018.74 1018.78 1018.86 1018.78 1018.70 1018.54 1018.50 1018.54
1014.22 1014.46 1014.78 1015.06 1015.26 1015.50 1015.58 1015.70 1016.06 1016.46 1016.78 1016.90 1016.90 1016.86 1016.82 1016.86 1016.86 1016.94 1016.86 1016.82 1016.86 1017.02 1017.06 1016.98 1016.86 1016.82 1016.94 1017.06 1017.18 1017.22 1017.26 1017.34 1017.38 1017.46 1017.70 1017.90 1018.02 1018.02 1018.10 1018.30 1018.58 1018.66 1018.62 1018.58 1018.62 1018.74 1018.66 1018.62 1018.86 1018.94 1018.94 1018.86 1018.78 1018.70 1018.82 1018.90 1018.90 1019.10 1018.98 1018.86 1018.70 1018.62
1014.46 1014.58 1014.86 1015.22 1015.38 1015.58 1015.94 1016.18 1016.26 1016.46 1016.86 1017.06 1017.14 1017.18 1017.22 1017.18 1017.14 1017.14 1017.10 1017.02 1016.98 1016.98 1017.06 1017.10 1017.06 1017.06 1017.06 1017.02 1017.14 1017.22 1017.22 1017.30 1017.34 1017.50 1017.70 1017.86 1017.86 1017.90 1018.02 1018.18 1018.42 1018.46 1018.62 1018.74 1018.86 1018.78 1018.74 1018.66 1018.82 1019.10 1019.06 1019.02 1018.94 1018.90 1018.94 1018.94 1018.94 1019.02 1019.10 1018.98 1018.86 1018.86
1014.58 1014.78 1014.90 1015.06 1015.18 1015.46 1015.70 1015.86 1016.18 1016.58 1016.82 1017.10 1017.22 1017.30 1017.50 1017.42 1017.34 1017.30 1017.34 1017.38 1017.34 1017.26 1017.14 1017.10 1017.06 1017.22 1017.22 1017.18 1017.22 1017.26 1017.30 1017.38 1017.50 1017.62 1017.70 1017.74 1017.74 1017.90 1018.06 1018.22 1018.26 1018.54 1018.62 1018.78 1018.98 1018.90 1018.82 1018.82 1019.14 1019.26 1019.46 1019.34 1019.10 1018.90 1018.82 1018.74 1018.86 1018.98 1019.02 1018.94 1018.90 1018.90
1014.62 1014.82 1014.94 1015.02 1015.14 1015.34 1015.66 1015.90 1016.06 1016.58 1016.66 1017.18 1017.26 1017.26 1017.34 1017.46 1017.38 1017.42 1017.50 1017.46 1017.46 1017.46 1017.46 1017.34 1017.14 1017.18 1017.22 1017.18 1017.26 1017.30 1017.38 1017.38 1017.46 1017.50 1017.66 1017.78 1017.90 1018.10 1018.14 1018.22 1018.34 1018.46 1018.70 1018.78 1018.90 1018.90 1018.90 1018.98 1019.26 1019.30 1019.38 1019.46 1019.78 1019.62 1019.10 1018.98 1018.98 1019.02 1018.98 1018.94 1018.90 1018.94
1014.70 1014.82 1014.94 1015.06 1015.14 1015.38 1015.62 1015.94 1016.14 1016.46 1016.74 1016.82 1017.30 1017.42 1017.46 1017.50 1017.54 1017.54 1017.74 1017.70 1017.66 1017.66 1017.62 1017.54 1017.34 1017.26 1017.34 1017.34 1017.34 1017.34 1017.34 1017.38 1017.46 1017.42 1017.46 1017.62 1017.78 1018.06 1018.18 1018.26 1018.30 1018.38 1018.50 1018.94 1019.06 1019.10 1019.02 1019.02 1019.14 1019.30 1019.94 1019.98 1020.10 1020.02 1020.22 1019.78 1019.70 1019.26 1018.98 1019.02 1018.98 1019.06
1014.70 1014.90 1015.02 1015.10 1015.22 1015.42 1015.82 1016.26 1016.58 1016.82 1016.82 1017.22 1017.42 1017.58 1017.74 1017.94 1017.94 1017.90 1017.90 1017.94 1018.02 1017.90 1017.78 1017.70 1017.62 1017.50 1017.38 1017.38 1017.34 1017.30 1017.42 1017.58 1017.58 1017.58 1017.54 1017.62 1017.74 1017.98 1018.14 1018.18 1018.26 1018.38 1018.46 1018.70 1019.18 1019.26 1019.22 1019.14 1019.22 1019.30 1019.54 1020.02 1020.34 1020.50 1020.34 1019.98 1019.86 1019.62 1019.22 1019.22 1019.02 1018.98
1014.82 1014.98 1015.10 1015.18 1015.18 1015.38 1015.78 1016.22 1016.66 1017.02 1017.50 1017.74 1018.10 1018.18 1018.26 1018.26 1018.18 1018.10 1018.18 1018.18 1018.10 1018.06 1018.06 1018.06 1017.94 1017.78 1017.66 1017.54 1017.50 1017.46 1017.50 1017.58 1017.66 1017.70 1017.70 1017.82 1017.90 1018.02 1018.18 1018.26 1018.30 1018.34 1018.50 1018.58 1018.86 1019.22 1019.38 1019.22 1019.30 1019.50 1019.58 1019.90 1020.14 1020.26 1020.14 1020.10 1020.02 1020.38 1019.46 1019.30 1019.22 1019.02
1014.74 1014.98 1015.10 1015.22 1015.18 1015.38 1015.90 1016.22 1016.50 1016.90 1017.26 1017.70 1018.06 1018.22 1018.06 1018.06 1018.10 1018.18 1018.14 1018.14 1018.22 1018.26 1018.30 1018.26 1018.26 1018.10 1017.94 1017.82 1017.78 1017.70 1017.74 1017.78 1017.86 1017.90 1017.86 1017.90 1017.98 1018.10 1018.18 1018.26 1018.34 1018.42 1018.54 1018.66 1018.78 1019.18 1019.38 1019.46 1019.46 1019.62 1019.62 1019.46 1019.46 1019.62 1019.74 1019.94 1020.26 1020.22 1020.38 1019.70 1019.38 1019.38
1014.70 1014.90 1015.10 1015.18 1015.18 1015.18 1015.82 1016.34 1016.78 1017.18 1017.50 1017.78 1017.86 1018.06 1018.10 1018.14 1018.10 1018.18 1018.22 1018.30 1018.30 1018.38 1018.42 1018.42 1018.42 1018.34 1018.18 1018.14 1018.14 1018.14 1018.06 1018.02 1018.06 1018.10 1018.10 1018.18 1018.22 1018.22 1018.22 1018.34 1018.42 1018.54 1018.66 1018.74 1018.86 1019.18 1019.46 1019.46 1019.66 1019.98 1019.62 1019.42 1019.42 1019.46 1019.54 1019.58 1019.66 1019.74 1019.98 1020.30 1019.98 1019.46
1014.66 1014.86 1015.14 1015.14 1015.18 1015.34 1015.62 1016.26 1016.78 1017.30 1017.74 1017.90 1017.90 1018.02 1018.10 1018.14 1018.26 1018.34 1018.46 1018.46 1018.50 1018.54 1018.58 1018.62 1018.62 1018.50 1018.42 1018.30 1018.30 1018.26 1018.26 1018.26 1018.30 1018.38 1018.34 1018.42 1018.42 1018.42 1018.46 1018.50 1018.58 1018.66 1018.78 1018.94 1018.98 1019.10 1019.30 1019.50 1019.46 1019.54 1019.46 1019.62 1019.70 1019.66 1019.62 1019.62 1019.66 1019.66 1019.90 1020.18 1020.50 1020.30
1014.62 1014.82 1015.02 1015.22 1015.22 1015.50 1015.74 1016.18 1016.86 1017.34 1017.66 1018.06 1018.10 1018.22 1018.18 1018.30 1018.46 1018.50 1018.62 1018.70 1018.74 1018.74 1018.78 1018.82 1018.86 1018.78 1018.66 1018.58 1018.54 1018.46 1018.46 1018.46 1018.46 1018.46 1018.46 1018.54 1018.58 1018.62 1018.70 1018.78 1018.82 1018.86 1018.86 1018.98 1019.14 1019.22 1019.42 1019.50 1019.50 1019.54 1019.54 1019.62 1020.02 1020.06 1019.90 1019.78 1019.90 1019.94 1019.98 1019.98 1020.38 1020.62
1014.30 1014.62 1014.86 1015.10 1015.22 1015.50 1015.74 1015.94 1016.54 1017.14 1017.46 1017.94 1018.10 1018.18 1018.30 1018.46 1018.58 1018.70 1018.74 1018.78 1018.78 1018.86 1018.94 1018.98 1018.94 1018.94 1018.86 1018.82 1018.78 1018.70 1018.66 1018.66 1018.62 1018.58 1018.58 1018.62 1018.70 1018.74 1018.82 1018.90 1018.94 1018.94 1018.98 1019.06 1019.18 1019.26 1019.38 1019.50 1019.58 1019.62 1019.70 1019.82 1020.10 1020.14 1020.50 1020.46 1020.30 1020.18 1020.10 1020.18 1020.34 1020.50
1014.18 1014.38 1014.74 1015.02 1015.30 1015.50 1015.62 1015.78 1016.14 1016.78 1017.26 1017.70 1017.94 1018.06 1018.02 1018.26 1018.42 1018.54 1018.66 1018.74 1018.86 1018.90 1018.94 1019.02 1019.02 1018.98 1018.94 1018.86 1018.82 1018.90 1018.86 1018.86 1018.86 1018.86 1018.90 1018.90 1018.90 1018.90 1018.98 1018.98 1018.98 1019.06 1019.22 1019.30 1019.38 1019.42 1019.50 1019.54 1019.62 1019.74 1019.86 1019.98 1020.06 1020.14 1020.14 1020.22 1020.26 1020.30 1020.18 1020.30 1020.38 1020.82
1014.06 1014.34 1014.70 1015.10 1015.42 1015.58 1015.50 1015.54 1015.90 1016.46 1017.10 1017.54 1017.86 1017.98 1018.02 1018.10 1018.18 1018.34 1018.54 1018.70 1018.78 1018.86 1018.98 1019.02 1019.10 1019.06 1019.02 1018.90 1018.86 1018.90 1018.94 1018.98 1019.06 1019.06 1019.10 1019.06 1019.14 1019.10 1019.18 1019.26 1019.34 1019.42 1019.42 1019.42 1019.50 1019.46 1019.58 1019.70 1019.66 1019.66 1019.94 1020.10 1020.10 1020.06 1020.18 1020.22 1020.14 1020.26 1020.50 1020.54 1020.46 1020.46
1014.10 1014.22 1014.58 1015.02 1015.54 1015.82 1015.78 1015.66 1015.82 1016.30 1017.06 1017.50 1017.82 1018.06 1018.22 1018.14 1018.18 1018.18 1018.34 1018.46 1018.58 1018.70 1018.82 1018.94 1019.06 1019.06 1019.02 1019.02 1018.94 1018.90 1018.94 1019.02 1019.06 1019.06 1019.14 1019.18 1019.22 1019.26 1019.30 1019.38 1019.46 1019.50 1019.62 1019.74 1019.70 1019.74 1019.86 1019.94 1019.94 1020.06 1020.06 1020.06 1020.18 1020.22 1020.30 1020.26 1020.22 1020.18 1020.18 1020.14 1020.38 1020.50
1015.10 1014.86 1014.70 1014.94 1015.38 1015.86 1016.02 1016.02 1016.10 1016.38 1016.90 1017.50 1017.74 1017.98 1018.26 1018.30 1018.26 1018.26 1018.30 1018.38 1018.50 1018.62 1018.70 1018.82 1018.82 1018.86 1019.02 1018.98 1018.98 1018.98 1018.98 1018.98 1018.98 1019.06 1019.18 1019.30 1019.38 1019.42 1019.50 1019.58 1019.70 1019.78 1019.82 1019.82 1019.82 1019.86 1019.94 1019.90 1019.94 1020.02 1020.14 1020.22 1020.34 1020.38 1020.38 1020.42 1020.34 1020.38 1020.34 1020.38 1020.46 1020.58
1015.90 1016.02 1016.38 1016.34 1016.42 1016.02 1015.94 1016.10 1016.22 1016.46 1016.70 1017.22 1017.66 1017.78 1018.06 1018.30 1018.30 1018.14 1018.26 1018.34 1018.50 1018.62 1018.66 1018.70 1018.74 1018.78 1018.90 1018.90 1018.94 1018.98 1018.98 1018.98 1019.02 1019.10 1019.18 1019.22 1019.34 1019.42 1019.50 1019.66 1019.82 1019.94 1019.98 1020.02 1020.02 1020.10 1020.22 1020.18 1020.26 1020.30 1020.34 1020.42 1020.34 1020.46 1020.42 1020.34 1020.38 1020.46 1020.54 1020.62 1020.62 1020.66
1015.26 1015.26 1015.38 1015.74 1016.50 1016.54 1015.90 1015.86 1016.14 1016.30 1016.58 1016.86 1017.42 1017.74 1017.78 1018.02 1018.18 1018.18 1018.18 1018.30 1018.42 1018.58 1018.74 1018.82 1018.82 1018.82 1018.90 1018.94 1018.94 1018.98 1019.02 1019.02 1019.02 1019.14 1019.22 1019.34 1019.42 1019.50 1019.50 1019.58 1019.74 1019.86 1020.02 1020.10 1020.14 1020.26 1020.34 1020.42 1020.54 1020.54 1020.58 1020.54 1020.58 1020.62 1020.62 1020.54 1020.50 1020.50 1020.54 1020.58 1020.62 1020.70
Wind_Speed
7 7 7 7 6 7 9 13 10 12 12 11 11 12 12 11 9 10 10 10 8 5 4 4 5 4 8 3 5 6 7 8 8 10 10 9 9 8 8 7 5 4 3 2 1 3 4 5 4 4 4 3 7 4 2 4 4 4 3 3 3 4
7 7 7 6 5 5 7 8 7 7 7 9 9 9 7 5 7 5 10 7 5 5 4 3 3 6 3 4 3 5 6 8 8 9 9 8 8 7 7 6 5 4 3 2 0 1 3 5 6 5 5 4 5 2 1 5 6 4 3 3 3 5
7 7 7 6 5 5 5 5 5 5 5 7 7 7 4 5 3 5 5 5 4 4 4 3 2 3 3 5 3 4 6 7 6 8 8 7 8 6 6 5 5 3 2 2 0 1 3 4 4 5 5 2 5 0 1 5 6 5 4 3 3 8
8 7 7 5 5 5 5 5 5 5 5 5 4 4 3 3 4 4 5 5 5 4 4 2 4 6 6 3 3 4 5 6 6 7 7 5 6 6 6 6 5 4 3 1 0 2 3 4 4 4 4 2 5 0 2 6 6 5 5 4 3 9
8 7 7 6 6 5 5 5 4 4 4 4 4 3 3 3 4 4 4 4 5 4 4 4 1 2 3 3 2 3 3 3 2 3 5 3 3 3 3 3 2 3 3 2 2 2 3 5 4 4 4 3 4 0 1 6 5 5 5 4 5 10
8 7 6 5 6 6 6 5 4 4 4 3 4 4 2 3 4 4 4 4 5 5 3 3 2 2 2 2 2 3 4 3 3 3 3 4 4 4 3 3 3 3 3 2 2 3 3 3 5 4 5 4 4 0 3 5 5 5 5 5 6 11
7 6 6 6 5 5 5 5 5 5 5 5 3 4 3 2 2 3 4 4 5 4 4 3 4 3 2 3 3 3 3 4 4 4 4 5 5 4 4 4 3 3 2 2 3 3 3 4 3 3 4 5 3 2 4 5 5 5 5 5 6 12
7 7 6 7 6 6 5 5 5 6 5 4 4 3 2 2 2 3 3 4 4 4 4 3 3 4 3 3 3 3 2 1 3 4 5 5 5 4 4 4 3 3 3 3 3 3 4 4 4 3 4 5 2 3 5 5 5 5 5 5 5 9
8 8 6 7 7 5 5 5 4 4 4 4 2 4 3 3 2 1 2 3 4 5 4 4 4 4 3 4 4 3 4 4 4 5 5 4 4 5 5 5 5 5 4 4 3 4 3 4 4 4 5 5 2 4 5 5 5 6 5 5 5 7
9 8 7 6 6 6 6 5 5 5 4 3 2 3 4 4 3 3 3 3 4 5 5 4 4 4 4 5 4 4 4 5 6 6 5 4 4 5 5 5 4 4 4 3 3 4 3 5 4 5 6 5 4 5 6 6 6 6 6 5 5 6
9 8 8 7 6 6 5 5 5 4 3 3 3 3 4 4 3 2 3 3 3 5 5 5 5 5 4 5 4 5 5 6 5 2 2 3 3 4 5 5 5 4 3 2 4 4 4 5 6 5 5 3 4 5 6 5 6 6 7 6 5 4
8 8 8 7 6 6 6 6 5 4 4 4 3 3 4 4 5 3 3 3 3 4 4 3 4 4 4 4 5 6 6 3 3 3 3 3 2 1 1 0 0 1 1 2 3 4 4 5 5 5 3 2 1 4 6 5 6 8 7 6 6 5
8 7 8 7 7 6 6 5 5 5 4 4 4 4 3 4 5 4 4 4 3 3 4 5 3 2 3 3 5 4 1 2 2 2 2 2 3 1 0 0 2 2 3 2 3 5 2 4 3 1 3 3 4 4 5 3 0 1 3 6 7 6
7 8 6 6 7 6 6 5 5 5 4 4 4 4 3 4 4 4 3 3 3 3 4 4 4 3 4 4 3 1 1 2 1 1 2 2 3 3 1 1 1 1 3 2 3 4 2 1 4 4 4 3 5 3 4 4 5 4 2 2 3 5
7 7 7 7 8 7 6 6 6 5 4 3 2 2 2 2 2 3 3 2 3 4 5 4 4 4 4 4 3 3 3 2 2 2 1 2 2 3 3 2 1 2 2 0 0 1 4 2 4 5 3 2 5 4 4 4 2 6 6 5 4 3
8 8 7 9 7 7 7 5 5 5 4 3 4 4 2 2 2 2 3 3 3 3 4 5 5 5 4 4 3 4 3 3 2 2 1 1 1 2 2 1 3 1 3 2 3 3 2 4 3 4 2 3 4 3 4 4 3 2 4 6 5 5
11 9 8 8 8 6 5 5 4 4 4 4 4 4 2 1 1 3 3 4 3 3 3 5 5 5 4 4 3 4 3 4 3 3 3 3 2 2 1 3 1 3 2 3 4 3 3 3 4 3 3 4 4 3 4 4 3 3 4 6 5 5
9 9 9 9 7 6 5 5 4 4 2 3 3 3 3 3 2 2 3 4 3 3 3 3 5 6 5 3 3 3 3 4 4 4 3 2 3 3 4 5 4 4 2 5 4 4 3 3 3 3 3 4 3 4 4 4 3 3 3 5 6 6
9 8 8 7 6 5 5 5 5 5 4 4 3 3 2 2 2 1 1 1 0 2 2 2 3 3 3 2 4 3 3 3 3 3 3 4 3 4 5 5 6 3 1 2 3 3 4 4 3 2 2 1 2 3 3 3 4 4 4 2 3 5
8 8 7 6 6 6 6 5 7 6 6 5 3 4 3 3 3 3 1 0 1 3 4 4 3 2 0 1 2 2 2 3 3 4 4 4 4 4 5 3 1 2 3 3 3 2 2 3 3 3 2 1 2 2 4 2 3 2 2 1 1 1
6 7 8 7 6 7 7 6 4 5 6 5 5 4 5 3 3 3 2 1 1 2 4 5 4 2 1 1 2 3 3 2 3 4 4 4 4 3 3 3 3 2 3 2 1 2 1 2 3 1 1 2 2 1 0 1 2 1 1 2 2 1
6 6 7 6 6 5 4 6 7 6 6 6 6 6 4 3 3 3 3 1 0 1 1 2 3 3 2 2 2 3 4 3 4 4 4 4 3 4 4 3 3 3 2 2 1 1 0 1 1 1 0 1 3 2 1 2 2 1 1 1 2 2
6 6 5 5 6 5 3 5 7 5 8 4 3 3 4 2 2 5 4 4 3 3 3 3 2 3 5 3 3 2 3 2 4 5 5 5 5 4 3 3 2 4 2 2 2 2 2 2 1 1 1 2 1 1 3 4 1 1 2 1 2 2
7 5 5 4 4 5 6 5 6 7 5 5 6 4 4 4 5 6 6 4 4 4 4 4 4 4 4 3 3 3 3 3 3 3 4 3 3 5 4 3 3 2 4 2 2 1 3 1 1 3 1 1 0 1 1 2 1 2 1 1 2 2
6 5 4 4 6 8 9 8 7 7 8 8 6 6 5 5 3 3 3 4 3 3 4 5 5 5 4 4 3 2 2 3 3 3 3 3 2 4 3 2 3 4 3 4 3 1 2 1 2 2 3 2 2 0 2 1 1 2 3 2 1 1
5 4 4 5 8 9 9 10 8 8 8 7 7 6 6 5 4 4 3 0 2 4 4 5 4 5 4 4 5 4 4 4 3 4 4 3 3 4 4 3 2 2 3 2 4 3 1 1 2 4 4 2 1 2 1 2 2 1 2 0 3 3
6 5 5 6 8 9 9 8 9 8 8 8 8 3 3 3 4 3 2 3 3 3 4 5 4 4 5 5 5 6 6 5 5 4 3 4 4 3 4 3 2 3 3 3 3 3 3 1 2 3 4 4 2 1 1 2 1 1 1 2 2 2
6 7 6 7 8 10 10 8 7 7 7 7 7 7 6 5 4 3 5 2 3 3 3 4 4 4 5 5 5 6 5 5 6 5 5 5 4 3 5 4 3 3 2 3 4 5 4 1 2 1 0 1 2 1 1 3 1 1 2 1 1 3
8 8 6 7 9 8 10 9 8 7 6 4 6 7 6 5 5 3 4 2 4 3 4 4 3 4 4 5 5 5 6 6 5 4 4 6 5 5 5 5 5 5 4 4 3 3 4 3 3 3 2 2 1 1 2 2 1 2 2 2 1 2
9 8 8 7 9 9 10 10 9 7 8 6 6 5 5 6 5 4 4 3 3 4 4 4 4 3 4 4 5 5 5 5 4 4 4 5 5 6 5 6 5 5 5 6 4 4 3 3 3 3 1 4 2 1 3 4 4 3 3 3 3 1
11 9 9 9 10 11 9 10 10 9 9 9 8 7 7 6 6 4 5 4 4 3 3 3 3 4 4 4 4 4 5 4 4 3 4 5 5 5 5 6 5 6 6 6 6 6 6 4 5 6 6 6 5 4 3 1 2 3 2 2 3 3
10 11 9 8 8 10 9 9 10 10 10 9 8 7 9 9 8 7 6 6 4 5 4 3 3 4 4 4 5 5 4 4 4 4 4 4 4 5 4 4 5 5 5 4 4 6 5 6 5 6 5 5 5 5 4 4 2 3 4 2 3 2
11 8 8 7 7 7 8 9 11 11 9 8 7 6 7 8 8 8 7 7 6 6 4 5 3 4 2 4 4 5 5 5 5 4 4 4 4 5 5 5 5 5 4 5 4 5 6 4 4 7 6 3 5 5 5 2 4 5 4 5 5 2
8 9 9 6 5 5 4 6 9 10 8 7 7 5 5 8 7 8 7 8 7 7 7 6 5 4 4 3 4 4 4 4 4 4 4 4 4 4 5 5 4 5 5 3 5 5 5 4 4 4 3 6 5 5 3 3 3 4 4 4 4 2
10 8 9 7 5 6 5 5 7 8 8 4 6 7 5 4 7 8 7 7 6 6 7 7 7 6 4 4 4 4 4 4 5 5 5 5 5 4 4 5 4 4 3 3 4 5 4 5 6 5 5 5 5 5 4 3 5 4 3 3 4 2
10 6 4 4 1 6 7 6 7 8 8 5 3 5 6 4 4 7 7 7 7 6 6 6 5 5 4 6 5 4 4 4 4 4 5 6 6 6 5 5 4 4 4 2 5 5 4 6 5 5 4 4 6 3 2 3 4 3 4 3 4 3
12 9 8 9 3 2 8 8 8 8 7 7 5 6 8 7 7 6 7 6 7 7 5 5 6 4 5 5 5 5 4 4 4 4 4 4 4 4 4 5 6 5 4 3 4 4 4 6 4 4 4 4 4 3 3 2 3 4 3 3 3 3
Wind_Direction
129 127 124 123 125 132 139 136 133 134 137 141 147 153 152 148 141 141 138 131 117 105 107 111 112 117 130 109 132 143 143 147 151 152 154 158 158 158 155 153 143 141 132 98 41 329 332 334 340 351 4 32 73 77 89 104 113 113 133 152 162 179
129 128 129 130 137 142 140 135 135 139 143 152 156 155 148 148 147 130 131 120 112 108 90 95 127 126 118 134 133 150 148 151 152 156 156 159 160 161 159 158 154 152 146 128 170 339 332 336 337 338 344 20 74 71 77 126 129 133 139 157 174 181
132 134 132 136 139 139 130 133 135 142 155 163 165 152 155 154 118 116 104 109 107 109 103 90 102 121 131 132 123 141 156 157 150 157 157 155 154 162 165 153 160 156 146 169 260 314 322 325 321 326 345 22 87 68 80 129 133 140 152 163 177 173
140 145 140 142 133 132 140 141 147 153 170 176 158 140 138 131 103 107 118 114 114 107 99 116 154 158 147 108 110 109 154 158 156 154 155 151 160 160 173 170 158 170 183 216 248 299 316 316 314 308 308 330 92 260 118 142 142 143 150 164 171 170
149 149 146 145 141 144 144 138 147 161 178 178 128 106 127 111 103 101 108 108 115 113 121 103 67 75 102 109 94 93 104 110 104 129 126 122 142 157 156 162 158 170 195 212 235 272 293 296 296 303 301 297 87 259 120 134 135 139 155 159 170 169
147 150 148 142 145 150 146 148 152 172 189 176 139 136 136 105 85 88 90 110 109 115 121 119 103 115 103 100 99 101 111 136 140 143 132 142 154 155 170 182 188 207 210 210 222 239 246 255 282 298 293 285 98 203 121 138 139 145 158 159 171 169
146 136 138 145 146 143 159 158 160 177 181 189 150 138 158 107 79 86 92 99 111 119 125 132 137 129 131 119 120 134 154 159 147 157 163 159 175 170 171 186 203 225 226 215 233 246 259 271 262 270 280 276 116 181 135 141 147 149 157 163 172 171
142 140 143 152 152 153 159 155 168 178 188 191 151 142 138 96 92 90 113 105 115 121 135 141 150 147 149 131 138 149 151 144 175 176 180 173 171 167 175 192 201 228 227 228 227 233 243 251 260 245 251 255 183 164 151 153 155 154 152 165 176 173
146 148 152 153 155 156 151 150 166 173 180 194 149 131 132 128 122 130 121 136 128 132 140 149 161 173 144 118 117 136 164 192 190 188 177 170 157 165 179 191 202 213 217 223 225 244 243 249 253 242 221 229 162 173 152 154 159 155 155 168 175 182
152 159 156 154 158 151 156 157 165 171 181 173 168 128 132 139 153 152 142 150 143 147 160 164 164 175 159 135 125 130 152 183 192 184 171 154 146 152 175 187 195 203 211 216 233 249 251 263 244 224 211 208 144 172 160 158 166 162 161 166 181 192
159 159 158 164 160 151 152 159 163 159 155 161 181 145 127 127 134 166 172 171 155 157 162 165 165 174 177 146 141 150 181 198 182 107 99 144 171 166 165 177 191 205 199 204 231 240 235 253 252 211 213 204 144 167 159 167 170 161 164 171 179 191
162 161 166 162 151 148 160 163 157 152 158 174 163 139 139 137 148 175 188 189 170 163 143 140 149 165 165 153 165 189 198 160 90 94 131 158 154 123 140 187 283 263 215 229 268 272 246 224 224 216 227 216 99 159 160 170 177 169 168 168 174 187
162 169 163 155 156 158 158 154 154 161 167 170 155 144 158 155 143 172 180 174 168 146 120 122 103 122 142 160 196 203 136 68 77 85 105 132 142 117 66 39 315 307 306 301 300 284 294 200 188 17 40 37 72 125 143 126 85 308 190 173 174 177
162 165 147 149 149 153 159 157 162 162 168 160 161 159 168 148 148 167 176 163 148 139 127 128 113 105 140 180 200 126 73 70 59 82 112 125 95 67 42 42 290 279 269 266 280 291 352 42 65 75 78 98 77 75 100 118 155 172 165 238 191 173
149 146 148 152 153 157 163 161 156 162 154 144 111 90 84 109 144 166 147 135 135 136 133 136 132 135 179 191 184 95 83 106 105 83 77 77 118 125 67 355 296 256 308 262 151 355 86 69 76 61 46 53 80 77 90 85 109 162 173 169 168 176
138 142 153 153 154 159 164 159 153 137 122 118 109 101 114 153 167 125 123 137 148 133 139 144 149 173 182 190 166 121 143 149 111 97 97 100 87 88 81 26 16 180 116 85 105 59 44 87 77 85 70 83 86 86 83 86 70 82 156 156 164 169
138 140 142 144 147 149 145 140 138 116 130 114 113 112 128 171 137 126 141 152 155 152 151 158 164 188 185 190 144 138 149 138 140 141 157 164 142 129 131 99 316 294 176 137 114 95 63 72 71 54 70 61 35 48 61 78 73 48 99 148 156 162
132 136 138 140 142 138 139 132 117 120 109 95 92 117 154 162 129 146 165 182 170 148 174 176 172 187 201 182 145 153 134 141 153 153 144 133 146 162 138 142 198 244 183 132 118 123 108 82 85 67 58 80 86 61 61 44 49 37 65 127 160 171
124 126 125 125 126 114 112 107 104 109 99 72 47 34 43 54 56 143 216 230 127 109 165 203 221 195 185 172 121 125 138 147 145 129 109 118 134 119 145 168 188 190 39 47 125 143 134 124 100 97 78 56 104 95 46 53 54 53 21 31 141 181
122 126 123 122 121 109 102 111 103 96 88 84 79 74 50 65 78 86 96 201 214 147 158 184 220 235 320 60 97 115 133 155 157 139 130 124 142 143 146 147 63 54 69 59 59 70 87 103 81 68 60 23 12 39 65 45 60 55 78 19 13 35
131 131 132 136 133 131 123 110 92 98 107 108 103 94 86 90 78 93 116 180 230 180 166 176 189 185 169 207 128 139 127 142 140 142 135 145 159 149 114 109 124 121 118 102 46 38 11 93 107 25 16 27 352 49 51 87 80 48 26 107 71 31
128 139 144 150 145 128 136 142 136 136 122 117 111 103 95 72 84 79 87 103 78 20 39 185 184 159 170 139 139 147 163 157 136 136 146 165 164 128 122 112 124 80 46 129 106 119 336 64 32 144 100 328 349 336 357 41 44 354 280 107 113 115
146 154 158 151 136 138 115 120 121 139 129 96 47 99 109 110 78 66 37 40 39 51 74 38 27 105 153 165 147 156 162 153 133 130 131 142 142 129 118 124 118 128 94 44 86 50 55 69 157 98 134 80 338 4 332 7 355 20 26 34 90 106
160 164 157 144 116 93 99 92 99 117 92 100 127 96 74 56 53 56 41 23 31 53 52 59 61 70 94 113 150 151 152 151 130 122 125 122 109 122 134 129 112 108 118 78 45 352 21 78 118 113 95 166 274 98 353 304 303 296 15 356 76 97
158 159 153 126 117 115 104 94 94 82 91 84 66 69 79 49 38 70 62 41 27 41 47 53 44 43 59 67 77 114 92 57 73 85 98 103 99 108 120 130 130 128 130 139 121 105 12 52 60 54 137 84 38 16 223 251 51 305 2 359 354 32
129 133 135 138 136 130 128 129 124 117 112 108 105 109 126 136 103 93 109 295 31 49 58 56 45 45 48 59 62 72 85 90 93 88 88 96 97 95 110 117 131 121 105 114 132 115 115 53 75 45 50 100 179 190 209 256 85 271 327 242 322 331
146 146 143 151 141 128 126 132 134 136 136 138 137 164 145 139 131 141 118 85 50 28 51 72 45 54 54 55 61 61 65 70 82 77 70 72 65 68 87 107 123 115 130 125 122 105 118 81 29 34 16 342 334 322 169 115 230 102 31 323 353 331
152 150 159 154 140 138 132 131 126 128 135 139 146 155 152 153 138 137 98 68 41 34 42 66 71 52 64 66 72 71 73 70 71 64 66 65 71 63 67 66 82 95 92 78 119 127 125 170 143 113 251 253 288 5 348 96 140 156 164 145 329 321
151 155 164 155 140 138 135 137 134 135 131 143 144 149 148 137 124 107 103 73 69 47 40 38 55 74 65 75 74 84 80 79 77 73 79 76 70 71 72 69 58 52 57 61 73 111 118 161 130 147 141 257 326 345 20 40 81 69 109 96 325 3
157 162 161 159 144 139 134 133 135 143 142 147 144 141 136 132 125 128 122 107 85 72 56 48 36 41 64 67 79 84 87 88 89 84 79 86 84 75 71 74 77 84 84 77 64 76 89 69 59 73 107 106 57 329 11 25 14 32 54 77 136 47
163 159 161 163 153 149 146 143 142 149 145 151 157 150 137 132 130 126 129 121 109 97 77 74 57 45 51 59 67 76 90 89 80 77 78 76 80 88 85 89 89 80 76 86 80 79 70 64 77 71 67 85 110 104 87 80 46 32 84 75 59 5
165 163 161 157 154 151 147 140 138 144 147 157 163 162 153 155 157 149 148 139 138 115 99 77 69 73 66 62 72 66 69 69 67 71 75 85 85 83 82 81 77 86 88 89 93 89 88 81 79 80 76 87 98 109 106 124 137 99 97 95 108 138
171 152 139 137 155 157 149 145 145 143 149 156 166 163 157 155 159 151 153 147 145 138 136 104 120 112 113 101 100 88 83 82 79 84 91 84 75 75 73 68 70 63 65 68 77 89 88 95 103 103 104 84 96 87 92 106 112 119 110 116 115 94
127 112 105 120 172 158 129 133 136 134 140 151 157 162 170 162 164 156 158 159 157 156 154 157 165 166 174 138 116 126 117 112 111 103 98 101 96 91 87 86 82 80 77 85 78 76 87 87 74 83 94 83 68 84 81 80 101 91 106 86 68 79
46 61 96 130 166 125 98 104 122 121 124 141 162 159 178 180 160 159 166 161 166 162 157 171 169 178 160 139 143 128 129 128 122 110 110 104 102 93 91 84 82 87 72 72 74 82 71 76 77 81 73 86 88 70 82 82 83 81 94 105 137 164
55 61 23 40 19 119 114 112 128 126 127 135 182 165 168 188 183 168 169 166 171 174 175 170 178 160 169 150 151 141 134 136 124 110 118 129 128 123 115 104 93 85 79 66 79 69 65 67 66 73 84 78 76 68 67 73 79 98 91 116 109 118
152 163 156 156 158 150 124 127 141 143 142 146 172 183 176 187 187 183 172 174 169 182 172 174 176 170 161 160 151 146 142 147 135 123 119 127 125 125 127 125 126 122 118 100 89 89 83 79 82 90 75 76 99 74 16 21 44 53 77 75 89 117